This is the latest recevied weather packets stored in our database for station/object PA1CD-13. If no packets are shown the sender has not sent any weather packets the latest 10 day(s).
| Time | Temp. | Humidity | Pressure | Rain* | Wind** | Luminosity | Snow |
|---|---|---|---|---|---|---|---|
| 1777644009 | 23.89° C | 35% | 1021.4 hPa | 0 mm | - | 682 W/m² | - |
| 1777643886 | 23.89° C | 35% | 1021.5 hPa | 0 mm | - | 686 W/m² | - |
| 1777643765 | 23.89° C | 35% | 1021.5 hPa | 0 mm | - | 689 W/m² | - |
| 1777643646 | 24.44° C | 35% | 1021.5 hPa | 0 mm | - | 695 W/m² | - |
| 1777643525 | 24.44° C | 35% | 1021.5 hPa | 0 mm | - | 695 W/m² | - |
| 1777643407 | 23.89° C | 35% | 1021.5 hPa | 0 mm | - | 696 W/m² | - |
| 1777643282 | 23.89° C | 34% | 1021.5 hPa | 0 mm | - | 702 W/m² | - |
| 1777643164 | 23.89° C | 34% | 1021.6 hPa | 0 mm | - | 710 W/m² | - |
| 1777643044 | 23.89° C | 34% | 1021.6 hPa | 0 mm | - | 710 W/m² | - |
| 1777642924 | 23.89° C | 34% | 1021.6 hPa | 0 mm | - | 710 W/m² | - |
| 1777642805 | 23.89° C | 34% | 1021.7 hPa | 0 mm | - | 712 W/m² | - |
| 1777642684 | 23.89° C | 33% | 1021.7 hPa | 0 mm | - | 721 W/m² | - |
| 1777642564 | 23.89° C | 33% | 1021.8 hPa | 0 mm | - | 721 W/m² | - |
| 1777642444 | 23.89° C | 33% | 1021.8 hPa | 0 mm | - | 723 W/m² | - |
| 1777642325 | 23.89° C | 35% | 1021.8 hPa | 0 mm | - | 726 W/m² | - |
| 1777642207 | 23.89° C | 35% | 1021.9 hPa | 0 mm | - | 723 W/m² | - |
| 1777642084 | 23.33° C | 35% | 1021.8 hPa | 0 mm | - | 253 W/m² | - |
| 1777641964 | 23.89° C | 35% | 1021.8 hPa | 0 mm | - | 735 W/m² | - |
| 1777641843 | 23.33° C | 36% | 1021.7 hPa | 0 mm | - | 735 W/m² | - |
| 1777641724 | 23.33° C | 35% | 1021.9 hPa | 0 mm | - | 735 W/m² | - |
| 1777641604 | 23.89° C | 35% | 1021.9 hPa | 0 mm | - | 742 W/m² | - |
| 1777641484 | 23.33° C | 35% | 1021.9 hPa | 0 mm | - | 744 W/m² | - |
| 1777641364 | 23.33° C | 35% | 1021.9 hPa | 0 mm | - | 746 W/m² | - |
| 1777641244 | 23.33° C | 36% | 1022 hPa | 0 mm | - | 747 W/m² | - |
| 1777641124 | 23.33° C | 36% | 1022 hPa | 0 mm | - | 747 W/m² | - |
* Rain latest hour (hover to see other rain measurements)
** Current wind speed in m/s (hover to see current wind gust speed)